This is the latest recevied weather packets stored in our database for station/object K5RWS. If no packets are shown the sender has not sent any weather packets the latest 10 day(s).
| Time | Temp. | Humidity | Pressure | Rain* | Wind** | Luminosity | Snow |
|---|---|---|---|---|---|---|---|
| 1777837739 | 20.56° C | 29% | 1021 hPa | 0 mm | - | 751 W/m² | - |
| 1777837435 | 20° C | 29% | 1021.4 hPa | 0 mm | - | 759 W/m² | - |
| 1777837131 | 20° C | 30% | 1021.1 hPa | 0 mm | - | 761 W/m² | - |
| 1777836827 | 20.56° C | 30% | 1021.3 hPa | 0 mm | - | 768 W/m² | - |
| 1777836523 | 20° C | 31% | 1021.5 hPa | 0 mm | - | 772 W/m² | - |
| 1777836219 | 19.44° C | 34% | 1021.5 hPa | 0 mm | - | 780 W/m² | - |
| 1777835915 | 20° C | 32% | 1021.5 hPa | 0 mm | - | 771 W/m² | - |
| 1777835613 | 19.44° C | 31% | 1021.7 hPa | 0 mm | - | 771 W/m² | - |
| 1777835309 | 20° C | 34% | 1021.7 hPa | 0 mm | - | 779 W/m² | - |
| 1777835006 | 18.89° C | 35% | 1021.7 hPa | 0 mm | - | 786 W/m² | - |
| 1777834703 | 20° C | 35% | 1022 hPa | 0 mm | - | 792 W/m² | - |
| 1777834400 | 19.44° C | 35% | 1022.1 hPa | 0 mm | - | 739 W/m² | - |
| 1777834100 | 19.44° C | 34% | 1022 hPa | 0 mm | - | 831 W/m² | - |
| 1777833796 | 19.44° C | 36% | 1022.1 hPa | 0 mm | - | 847 W/m² | - |
| 1777833492 | 19.44° C | 35% | 1022.1 hPa | 0 mm | - | 794 W/m² | - |
| 1777833189 | 18.33° C | 37% | 1022.3 hPa | 0 mm | - | 807 W/m² | - |
| 1777832887 | 18.89° C | 37% | 1022.4 hPa | 0 mm | - | 622 W/m² | - |
| 1777832586 | 18.89° C | 36% | 1022.5 hPa | 0 mm | - | 660 W/m² | - |
| 1777832282 | 17.78° C | 38% | 1022.5 hPa | 0 mm | - | 645 W/m² | - |
| 1777831979 | 18.33° C | 37% | 1022.9 hPa | 0 mm | - | 700 W/m² | - |
| 1777831675 | 18.89° C | 38% | 1022.9 hPa | 0 mm | - | 744 W/m² | - |
| 1777831374 | 18.89° C | 36% | 1023 hPa | 0 mm | - | 757 W/m² | - |
| 1777831070 | 18.33° C | 40% | 1023.1 hPa | 0 mm | - | 663 W/m² | - |
| 1777830768 | 18.33° C | 39% | 1023 hPa | 0 mm | - | 690 W/m² | - |
| 1777830464 | 17.78° C | 41% | 1022.9 hPa | 0 mm | - | 624 W/m² | - |
* Rain latest hour (hover to see other rain measurements)
** Current wind speed in m/s (hover to see current wind gust speed)